Location: Boullarre
(49.1305°N, 3.0047°E)
Time: 20:57:19
(UTC+00:00)

ISS - Pass Details

Date: 27 September 2024
Orbit: 411 x 423 km, 51.6° (Epoch: 14 October)

Event Time Altitude Azimuth Distance (km) Brightness Sun altitude
Rises 19:29:35 0° 287° (WNW) 2,369 1.7 -19.4°
Reaches altitude 10° 19:31:53 10° 275° (W) 1,505 0.2 -19.7°
Maximum altitude 19:34:45 26° 217° (SW) 871 -2.0 -20.1°
Enters shadow 19:35:15 25° 201° (SSW) 895 -2.1 -20.2°
